Wind_Speed
52 52 51 50 50 49 47 46 45 44 42 42 41 40 39 37 36 36 35 34 33 32 31 29 28 28 27 26 26 26 26 26 26 27 28 28 30 31 32 32 33 34 34
56 55 54 53 53 52 51 49 48 47 46 45 44 43 42 40 38 38 38 36 34 33 31 31 29 29 28 27 27 27 27 27 27 28 29 30 31 32 32 33 34 35 35
59 59 57 56 56 55 54 53 51 50 49 48 47 46 45 43 41 40 40 39 37 35 33 32 30 30 29 28 28 28 28 28 28 29 30 31 32 33 34 35 35 36 36
63 62 60 59 59 58 57 56 55 54 52 51 50 49 48 46 44 43 41 41 39 37 35 33 32 31 31 30 29 29 29 29 30 30 31 32 33 34 35 36 36 37 37
65 65 64 62 61 61 60 59 58 57 56 55 54 52 51 49 47 45 43 42 41 39 37 36 35 33 32 31 30 31 31 31 31 31 32 33 34 36 36 37 37 38 38
65 66 66 65 64 63 62 61 61 60 58 57 56 55 53 52 50 48 46 44 43 40 39 38 37 35 34 32 31 32 32 32 32 33 33 34 35 36 37 37 38 38 39
65 66 66 66 65 64 64 64 63 62 61 60 58 57 55 54 51 50 48 46 44 42 41 39 37 37 35 34 32 32 33 33 33 34 34 35 36 36 37 38 39 39 39
64 66 65 66 66 66 66 66 65 64 63 61 60 58 57 55 53 50 49 48 46 44 43 41 39 37 36 35 34 34 34 34 35 35 35 36 36 37 38 39 39 39 40
62 64 64 65 66 67 66 66 65 65 63 62 61 60 59 56 54 52 51 49 47 46 44 42 40 38 38 36 36 35 35 35 35 36 37 37 37 37 38 39 40 40 41
60 61 62 62 63 63 63 62 63 63 62 62 62 61 61 58 56 54 53 51 48 46 44 42 41 40 39 38 37 36 36 36 36 36 37 37 37 38 39 39 40 40 41
59 59 60 60 60 60 60 60 60 61 61 60 61 61 61 59 57 56 54 52 49 47 45 43 42 41 40 39 39 37 36 37 37 37 37 38 38 38 39 39 40 41 42
58 59 60 59 57 59 60 60 59 59 59 59 59 59 60 59 57 55 54 52 50 48 46 43 42 42 41 40 39 38 37 37 38 38 38 38 39 39 39 40 40 41 41
55 57 58 59 57 57 58 59 59 58 57 58 57 57 58 58 57 56 55 53 51 49 47 44 42 42 42 41 40 39 38 38 38 38 38 39 40 40 40 40 40 40 42
52 54 57 57 56 55 56 56 57 58 58 57 56 55 56 57 56 55 54 53 51 50 48 45 44 43 42 41 41 40 39 38 38 38 38 38 39 40 40 39 40 40 42
50 51 54 55 55 55 56 56 55 57 58 57 55 55 55 56 56 54 53 51 50 50 48 45 44 42 41 41 40 40 39 38 38 38 38 38 39 40 39 39 40 41 43
46 49 52 53 53 54 55 56 54 55 56 56 55 54 53 55 57 55 52 51 51 50 48 45 44 43 42 40 39 40 39 38 38 38 38 39 40 39 39 39 40 42 44
43 45 49 51 51 53 55 56 54 53 53 53 53 53 52 54 55 53 51 50 50 50 49 47 45 43 42 40 40 39 38 37 37 38 39 40 39 38 38 39 41 42 44
40 42 46 47 48 50 52 53 53 52 51 52 51 51 52 54 53 51 50 50 50 50 50 48 45 43 42 41 41 40 38 38 38 38 38 39 38 38 38 40 41 43 45
37 39 41 43 45 47 49 49 51 51 50 50 51 51 51 52 51 50 49 49 49 50 50 49 46 43 41 40 40 39 37 38 37 37 38 39 38 38 39 41 42 43 46
36 36 37 40 42 44 46 47 49 49 49 49 50 50 50 50 49 49 49 48 48 49 49 47 45 43 40 39 39 38 37 37 36 37 37 37 38 39 40 41 42 44 46
32 33 34 36 38 40 43 45 47 46 45 46 47 48 49 49 49 49 48 47 47 48 47 45 44 43 40 39 38 37 37 36 36 35 36 37 38 39 40 41 42 45 47
30 31 32 33 36 39 42 43 44 43 42 43 45 47 48 49 50 49 47 46 46 46 44 45 44 41 39 38 37 37 36 36 35 35 36 37 38 39 40 41 43 45 48
29 29 30 33 36 37 39 40 41 41 41 41 42 44 46 46 49 47 45 44 44 43 42 43 41 39 39 38 36 36 36 35 35 35 35 37 38 39 40 41 43 45 47
27 28 29 29 33 35 37 39 40 40 42 40 40 42 44 44 45 44 43 42 41 40 40 40 39 39 38 37 36 34 35 36 35 35 35 36 37 38 39 41 43 45 45
25 27 28 29 31 32 34 35 36 38 40 40 41 41 42 42 42 42 41 40 39 40 39 39 37 37 36 35 35 34 34 35 34 34 34 35 36 37 38 40 41 42 43
25 26 28 29 31 31 31 31 33 35 37 39 40 40 40 39 39 40 40 39 39 38 38 37 37 36 34 34 34 33 33 33 33 33 33 34 35 36 37 39 41 41 42
Wind_Direction
250 250 250 250 250 248 248 250 249 249 251 251 251 251 251 251 252 253 254 255 257 260 261 263 265 266 269 272 275 279 282 285 288 292 295 298 302 305 307 309 310 311 311
250 249 250 250 250 249 248 248 249 249 250 251 251 250 251 250 252 254 254 255 256 258 261 261 264 265 267 270 273 277 280 283 287 290 294 298 301 304 306 308 309 310 309
249 249 249 249 249 248 247 248 248 249 250 250 251 251 250 250 251 253 254 254 254 256 258 259 262 266 266 268 272 275 279 282 285 290 293 297 300 302 304 306 307 308 309
249 248 248 249 249 248 248 247 247 248 249 249 249 250 250 249 250 251 254 254 254 257 257 259 261 264 266 267 270 274 277 281 284 289 292 295 298 301 303 304 306 307 308
250 248 247 248 248 248 248 247 247 248 249 249 249 249 249 248 248 250 252 254 253 255 256 258 261 262 264 266 269 272 276 280 284 288 291 294 298 300 301 303 305 306 307
250 250 248 247 247 248 247 247 247 247 247 247 248 248 248 246 247 248 249 251 252 252 255 257 260 260 263 266 269 272 275 279 283 286 290 293 297 299 300 302 304 305 306
251 250 249 248 248 248 247 246 246 246 246 246 246 246 246 246 246 246 248 249 251 252 253 255 258 259 262 264 267 271 274 278 282 285 288 292 296 298 300 301 303 304 305
252 250 248 248 248 247 246 245 245 245 245 244 244 245 246 245 245 246 247 248 249 250 252 254 256 258 261 263 266 269 273 277 281 284 287 291 294 297 299 301 303 304 305
253 251 248 248 247 246 245 244 244 243 244 243 243 243 244 244 245 245 245 246 247 248 250 252 254 257 260 263 266 268 272 276 280 284 287 290 293 296 299 301 302 304 305
252 250 248 246 245 245 244 242 241 241 242 242 241 242 242 242 243 243 243 244 246 247 249 250 252 256 258 261 264 267 270 275 279 284 287 289 292 296 299 301 302 304 305
251 249 247 245 244 243 242 241 240 239 240 240 240 240 240 239 241 241 242 243 244 246 246 248 251 255 258 260 263 265 269 275 279 283 286 290 292 295 298 300 301 303 305
250 248 246 244 243 243 241 240 239 238 238 238 238 238 237 237 238 239 240 240 242 243 244 246 249 253 257 259 262 265 269 273 278 282 286 289 293 294 296 299 301 303 305
251 248 245 242 241 241 240 239 237 236 236 236 236 236 235 235 235 238 238 238 239 241 242 244 247 252 256 258 261 265 269 273 279 282 285 288 291 294 295 299 301 303 305
250 247 244 241 239 239 239 237 236 235 235 235 235 235 234 234 234 236 238 238 238 240 241 244 246 250 254 256 260 265 269 273 277 281 284 287 291 293 296 298 301 303 306
250 247 243 240 239 238 238 236 236 234 234 234 234 234 234 233 232 234 237 237 238 238 240 242 245 249 252 255 260 265 268 271 276 280 284 288 291 293 295 297 300 303 305
250 248 243 239 239 237 236 234 234 233 233 232 233 233 233 233 232 233 235 236 236 237 238 240 243 247 250 255 259 263 266 270 274 278 283 287 289 292 294 297 300 303 306
250 247 242 240 238 237 235 232 231 231 231 231 231 231 232 232 231 233 234 236 236 236 236 238 241 245 248 253 257 261 264 268 272 277 282 286 287 290 294 297 300 303 307
250 248 243 238 235 235 232 230 230 229 229 229 230 230 230 230 231 231 233 234 235 236 236 237 240 244 247 251 255 259 263 266 271 277 281 284 286 289 294 297 300 304 307
248 247 243 237 234 231 228 228 229 228 229 229 228 228 228 230 229 230 231 233 235 236 237 238 239 244 247 250 254 258 263 267 271 276 281 284 286 290 294 297 301 305 308
246 243 240 235 231 228 226 227 228 227 227 229 228 227 227 228 229 229 231 232 234 236 237 238 240 245 247 250 253 258 263 267 271 276 280 283 286 291 294 298 303 306 309
245 241 236 232 227 226 225 224 226 225 227 228 227 226 227 227 227 229 231 233 234 235 237 239 241 244 247 250 254 260 264 267 272 277 281 283 288 292 295 299 303 306 309
243 239 234 230 227 224 221 222 224 224 226 226 226 226 226 226 226 228 230 233 235 235 237 239 241 245 246 250 254 259 263 268 272 277 281 285 289 293 297 300 304 307 310
243 238 231 227 224 222 222 223 222 223 223 223 224 225 224 225 226 228 230 232 234 235 238 240 241 243 245 249 255 260 264 268 272 277 281 286 290 294 299 302 304 308 311
242 234 229 224 222 222 223 223 222 223 222 222 224 223 223 224 225 228 229 231 233 233 236 238 240 242 245 251 255 258 264 268 272 277 281 287 291 297 300 303 305 309 312
238 233 228 224 221 222 223 222 219 219 221 223 223 223 222 222 224 226 228 230 230 230 235 238 240 242 245 250 253 258 263 268 273 277 282 288 293 298 302 305 307 311 314
235 231 226 224 223 220 221 222 219 218 220 221 221 221 221 223 224 225 228 228 228 229 232 236 238 240 244 249 253 258 263 268 273 278 283 289 294 299 303 306 309 312 314
Height
5768 5770 5772 5775 5777 5780 5783 5785 5787 5790 5792 5794 5796 5798 5800 5801 5803 5804 5806 5807 5808 5808 5809 5809 5809 5809 5808 5808 5808 5807 5806 5805 5803 5801 5799 5796 5794 5791 5787 5784 5781 5777 5773
5755 5758 5760 5763 5766 5769 5771 5774 5777 5780 5782 5784 5787 5789 5791 5793 5795 5797 5798 5799 5800 5801 5802 5803 5802 5802 5802 5802 5802 5802 5800 5799 5797 5796 5793 5791 5788 5785 5782 5778 5775 5771 5767
5740 5744 5747 5751 5753 5756 5759 5762 5765 5768 5771 5774 5777 5780 5782 5784 5787 5789 5790 5792 5793 5794 5795 5796 5796 5796 5796 5796 5796 5796 5795 5793 5792 5790 5787 5785 5782 5779 5775 5772 5768 5764 5760
5724 5728 5732 5736 5739 5742 5746 5749 5753 5757 5760 5763 5766 5769 5772 5775 5778 5780 5782 5784 5785 5787 5788 5789 5790 5790 5790 5790 5790 5789 5789 5787 5786 5784 5781 5779 5776 5772 5769 5765 5762 5758 5754
5707 5711 5716 5721 5724 5728 5732 5736 5739 5743 5747 5751 5755 5758 5761 5764 5768 5771 5773 5775 5777 5779 5780 5782 5783 5783 5783 5783 5783 5783 5782 5781 5779 5777 5775 5772 5769 5766 5762 5759 5755 5751 5747
5689 5694 5699 5704 5708 5712 5716 5721 5724 5729 5734 5738 5742 5745 5749 5753 5757 5760 5763 5766 5768 5770 5772 5774 5775 5776 5776 5777 5776 5776 5775 5774 5773 5771 5768 5766 5762 5759 5755 5752 5748 5744 5740
5671 5675 5680 5685 5690 5694 5700 5705 5708 5713 5718 5723 5727 5732 5736 5741 5745 5750 5753 5756 5759 5761 5763 5765 5767 5768 5769 5769 5769 5769 5768 5767 5765 5764 5761 5759 5755 5752 5748 5745 5741 5737 5732
5652 5656 5661 5666 5671 5676 5682 5687 5692 5697 5702 5707 5713 5718 5723 5729 5733 5738 5743 5746 5749 5752 5754 5757 5759 5760 5761 5761 5761 5761 5761 5760 5758 5756 5754 5751 5748 5745 5741 5737 5733 5729 5725
5634 5637 5642 5647 5652 5657 5663 5669 5675 5680 5686 5692 5697 5704 5710 5716 5722 5727 5731 5735 5739 5742 5745 5748 5750 5752 5753 5753 5754 5754 5753 5752 5751 5749 5747 5744 5741 5738 5734 5730 5726 5721 5717
5616 5620 5624 5629 5634 5639 5645 5651 5657 5663 5669 5675 5682 5689 5696 5703 5709 5715 5719 5724 5728 5732 5735 5739 5741 5743 5744 5745 5745 5746 5745 5745 5743 5741 5739 5736 5733 5730 5726 5722 5718 5713 5709
5599 5603 5607 5611 5617 5623 5629 5635 5641 5647 5653 5660 5667 5674 5680 5688 5694 5701 5707 5713 5717 5722 5725 5729 5732 5734 5735 5736 5737 5737 5737 5736 5735 5733 5731 5728 5725 5722 5718 5714 5710 5705 5701
5584 5587 5591 5596 5601 5607 5613 5620 5626 5632 5638 5645 5652 5659 5666 5673 5681 5688 5695 5700 5706 5711 5715 5718 5722 5725 5726 5727 5728 5729 5729 5728 5727 5725 5723 5720 5717 5714 5710 5706 5702 5697 5692
5568 5572 5575 5580 5586 5591 5598 5604 5610 5617 5624 5631 5639 5646 5653 5660 5668 5675 5681 5688 5693 5699 5704 5708 5712 5715 5717 5718 5720 5720 5720 5720 5719 5717 5714 5712 5709 5706 5702 5698 5694 5689 5684
5551 5555 5559 5565 5571 5577 5583 5589 5596 5603 5611 5618 5625 5632 5639 5647 5655 5662 5669 5676 5681 5688 5694 5699 5702 5705 5707 5709 5710 5711 5711 5711 5710 5708 5706 5704 5701 5697 5694 5689 5685 5681 5676
5535 5539 5544 5549 5556 5562 5568 5575 5582 5590 5597 5605 5612 5620 5626 5634 5643 5650 5657 5664 5671 5677 5684 5689 5693 5696 5698 5700 5701 5702 5702 5702 5701 5699 5698 5695 5692 5689 5685 5681 5677 5672 5667
5521 5524 5529 5535 5542 5548 5554 5562 5569 5577 5584 5592 5600 5607 5614 5622 5630 5638 5646 5653 5659 5666 5673 5679 5682 5686 5688 5690 5692 5693 5693 5693 5692 5691 5689 5687 5684 5680 5677 5673 5669 5664 5658
5508 5511 5516 5521 5528 5535 5541 5549 5557 5564 5572 5580 5588 5595 5603 5611 5619 5627 5635 5642 5648 5655 5662 5668 5671 5675 5678 5680 5682 5683 5684 5684 5683 5682 5680 5678 5675 5672 5668 5665 5660 5655 5649
5496 5499 5503 5508 5515 5522 5529 5537 5545 5553 5561 5569 5576 5584 5591 5599 5608 5616 5624 5631 5638 5644 5651 5656 5661 5665 5668 5671 5673 5674 5675 5675 5674 5673 5672 5670 5667 5664 5660 5656 5651 5646 5640
5486 5489 5492 5497 5504 5510 5519 5527 5534 5542 5550 5558 5566 5573 5581 5589 5597 5606 5613 5621 5628 5634 5640 5646 5651 5655 5659 5661 5663 5665 5666 5666 5665 5665 5663 5661 5658 5655 5651 5647 5642 5637 5631
5477 5479 5483 5487 5494 5501 5509 5517 5525 5533 5541 5548 5556 5563 5571 5579 5588 5596 5603 5610 5617 5624 5630 5635 5641 5645 5649 5652 5655 5656 5657 5657 5656 5656 5654 5652 5649 5646 5643 5638 5634 5628 5622
5469 5471 5475 5480 5486 5493 5501 5508 5516 5524 5531 5539 5547 5554 5562 5571 5579 5586 5594 5601 5608 5614 5620 5625 5631 5636 5640 5643 5646 5648 5648 5648 5647 5647 5645 5644 5641 5638 5634 5629 5624 5619 5612
5462 5465 5469 5474 5479 5486 5494 5501 5508 5516 5523 5530 5538 5546 5554 5562 5570 5577 5584 5592 5599 5605 5611 5617 5622 5627 5631 5635 5637 5639 5639 5640 5640 5639 5637 5635 5632 5629 5625 5621 5616 5610 5603
5457 5459 5463 5467 5474 5480 5487 5494 5501 5508 5516 5523 5530 5538 5546 5553 5561 5568 5575 5582 5589 5596 5602 5608 5614 5619 5623 5626 5629 5630 5631 5631 5632 5631 5629 5626 5623 5620 5616 5612 5606 5601 5594
5452 5454 5458 5463 5468 5475 5481 5488 5495 5501 5508 5516 5523 5531 5538 5546 5553 5560 5568 5574 5581 5588 5594 5599 5606 5611 5614 5617 5620 5622 5623 5623 5623 5622 5620 5618 5615 5611 5607 5603 5598 5592 5585
5447 5450 5454 5458 5464 5470 5476 5482 5488 5494 5501 5509 5516 5523 5530 5538 5546 5553 5559 5566 5573 5579 5585 5592 5597 5601 5605 5608 5611 5613 5615 5615 5615 5614 5612 5610 5607 5603 5599 5594 5589 5583 5576
5443 5446 5450 5454 5460 5465 5471 5476 5482 5488 5495 5502 5510 5517 5524 5532 5538 5545 5552 5558 5565 5572 5578 5583 5588 5593 5597 5600 5603 5606 5607 5608 5607 5606 5604 5602 5599 5595 5591 5585 5580 5574 5568